| time (UTC) | temp C | wind direction | speed KPH | gust KPH | rain 1hr cm | rain 24hr cm | rain mn cm | humidity % | barometer mb |
| 20260507125905 | 20 | 64 | 3.2 | 3.2 | 0.00 | 0.00 | 0.00 | 86 | 1017.0 |
| 20260507125403 | 20 | 59 | 3.2 | 4.8 | 0.00 | 0.00 | 0.00 | 87 | 1017.0 |
| 20260507124900 | 20 | 77 | 3.2 | 4.8 | 0.00 | 0.00 | 0.00 | 87 | 1017.0 |
| 20260507124355 | 20 | 72 | 3.2 | 3.2 | 0.00 | 0.00 | 0.00 | 87 | 1017.0 |
| 20260507123855 | 20 | 109 | 1.6 | 3.2 | 0.00 | 0.00 | 0.00 | 87 | 1017.1 |
| 20260507123351 | 20 | 81 | 1.6 | 4.8 | 0.00 | 0.00 | 0.00 | 88 | 1017.0 |
| 20260507122847 | 20 | 80 | 3.2 | 4.8 | 0.00 | 0.00 | 0.00 | 87 | 1017.2 |
| 20260507122343 | 20 | 73 | 1.6 | 4.8 | 0.00 | 0.00 | 0.00 | 87 | 1017.1 |
| 20260507121839 | 20 | 63 | 3.2 | 4.8 | 0.00 | 0.00 | 0.00 | 86 | 1017.1 |
| 20260507121335 | 20 | 49 | 3.2 | 4.8 | 0.00 | 0.00 | 0.00 | 87 | 1017.2 |
| 20260507120831 | 20 | 60 | 1.6 | 4.8 | 0.00 | 0.00 | 0.00 | 88 | 1016.9 |
| 20260507120328 | 20 | 72 | 3.2 | 4.8 | 0.00 | 0.00 | 0.00 | 88 | 1017.2 |
| 20260507115824 | 20 | 63 | 1.6 | 4.8 | 0.00 | 0.00 | 0.00 | 88 | 1017.0 |
| 20260507115320 | 20 | 81 | 1.6 | 4.8 | 0.00 | 0.00 | 0.00 | 88 | 1017.1 |
| 20260507114816 | 20 | 63 | 3.2 | 3.2 | 0.00 | 0.00 | 0.00 | 89 | 1017.2 |
| 20260507114313 | 20 | 63 | 1.6 | 4.8 | 0.00 | 0.00 | 0.00 | 87 | 1017.1 |
| 20260507113811 | 20 | 73 | 4.8 | 4.8 | 0.00 | 0.00 | 0.00 | 86 | 1017.1 |
| 20260507113308 | 20 | 83 | 3.2 | 3.2 | 0.00 | 0.00 | 0.00 | 86 | 1017.4 |
| 20260507112805 | 20 | 81 | 3.2 | 4.8 | 0.00 | 0.00 | 0.00 | 85 | 1017.5 |
| 20260507112306 | 20 | 69 | 3.2 | 4.8 | 0.00 | 0.00 | 0.00 | 86 | 1017.6 |
| 20260507111800 | 20 | 72 | 1.6 | 4.8 | 0.00 | 0.00 | 0.00 | 85 | 1017.4 |
| 20260507111256 | 20 | 53 | 1.6 | 3.2 | 0.00 | 0.00 | 0.00 | 85 | 1017.7 |
| 20260507110752 | 20 | 72 | 3.2 | 4.8 | 0.00 | 0.00 | 0.00 | 86 | 1017.7 |
| 20260507110249 | 20 | 78 | 3.2 | 3.2 | 0.00 | 0.00 | 0.00 | 87 | 1017.8 |
| 20260507105746 | 20 | 87 | 3.2 | 4.8 | 0.00 | 0.00 | 0.00 | 86 | 1017.7 |
| 20260507105241 | 20 | 69 | 0.0 | 3.2 | 0.00 | 0.00 | 0.00 | 86 | 1017.9 |
| 20260507104739 | 20 | 57 | 3.2 | 4.8 | 0.00 | 0.00 | 0.00 | 87 | 1017.8 |
| 20260507104236 | 20 | 68 | 3.2 | 3.2 | 0.00 | 0.00 | 0.00 | 87 | 1017.9 |
| 20260507103732 | 20 | 71 | 1.6 | 4.8 | 0.00 | 0.00 | 0.00 | 86 | 1018.1 |
| 20260507103228 | 20 | 62 | 3.2 | 3.2 | 0.00 | 0.00 | 0.00 | 87 | 1018.0 |
| 20260507102725 | 20 | 69 | 1.6 | 3.2 | 0.00 | 0.00 | 0.00 | 88 | 1018.1 |
| 20260507102221 | 20 | 33 | 3.2 | 4.8 | 0.00 | 0.00 | 0.00 | 88 | 1018.1 |
| 20260507101717 | 20 | 82 | 3.2 | 4.8 | 0.00 | 0.00 | 0.00 | 87 | 1018.3 |
| 20260507101213 | 20 | 53 | 3.2 | 4.8 | 0.00 | 0.00 | 0.00 | 88 | 1018.3 |
| 20260507100710 | 20 | 25 | 1.6 | 3.2 | 0.00 | 0.00 | 0.00 | 88 | 1018.4 |
| 20260507100209 | 20 | 54 | 3.2 | 3.2 | 0.00 | 0.00 | 0.00 | 87 | 1018.3 |
| 20260507095706 | 20 | 36 | 0.0 | 4.8 | 0.00 | 0.43 | 0.43 | 87 | 1018.4 |
| 20260507095202 | 20 | 60 | 3.2 | 3.2 | 0.00 | 0.43 | 0.43 | 87 | 1018.4 |
| 20260507094659 | 21 | 50 | 3.2 | 3.2 | 0.00 | 0.43 | 0.43 | 87 | 1018.2 |
| 20260507094156 | 20 | 73 | 3.2 | 4.8 | 0.00 | 0.43 | 0.43 | 86 | 1018.2 |
| 20260507093653 | 21 | 74 | 3.2 | 4.8 | 0.00 | 0.43 | 0.43 | 88 | 1018.4 |
| 20260507093152 | 21 | 82 | 1.6 | 3.2 | 0.00 | 0.43 | 0.43 | 88 | 1018.4 |
| 20260507092649 | 21 | 84 | 3.2 | 4.8 | 0.00 | 0.43 | 0.43 | 87 | 1018.5 |
| 20260507092145 | 21 | 62 | 3.2 | 3.2 | 0.00 | 0.43 | 0.43 | 87 | 1018.3 |
| 20260507091641 | 21 | 40 | 1.6 | 3.2 | 0.00 | 0.43 | 0.43 | 87 | 1018.3 |
| 20260507091138 | 21 | 35 | 1.6 | 3.2 | 0.00 | 0.43 | 0.43 | 88 | 1018.5 |
| 20260507090633 | 21 | 51 | 3.2 | 3.2 | 0.00 | 0.43 | 0.43 | 88 | 1018.4 |
| 20260507090131 | 21 | 39 | 1.6 | 3.2 | 0.00 | 0.43 | 0.43 | 88 | 1018.5 |
| 20260507085628 | 21 | 59 | 3.2 | 3.2 | 0.00 | 0.43 | 0.43 | 88 | 1018.5 |
| 20260507085124 | 21 | 39 | 0.0 | 3.2 | 0.00 | 0.43 | 0.43 | 88 | 1018.5 |
| 20260507084621 | 21 | 79 | 1.6 | 3.2 | 0.00 | 0.43 | 0.43 | 89 | 1018.7 |
| 20260507084118 | 21 | 49 | 3.2 | 3.2 | 0.00 | 0.43 | 0.43 | 90 | 1018.6 |
| 20260507083615 | 21 | 35 | 1.6 | 3.2 | 0.00 | 0.43 | 0.43 | 90 | 1018.8 |
| 20260507083112 | 21 | 49 | 1.6 | 3.2 | 0.00 | 0.43 | 0.43 | 91 | 1018.7 |
| 20260507082607 | 21 | 40 | 1.6 | 3.2 | 0.00 | 0.43 | 0.43 | 91 | 1018.6 |
| 20260507082104 | 21 | 72 | 1.6 | 3.2 | 0.00 | 0.43 | 0.43 | 90 | 1018.3 |
| 20260507081600 | 21 | 47 | 0.0 | 3.2 | 0.00 | 0.43 | 0.43 | 91 | 1018.4 |
| 20260507081057 | 21 | 60 | 3.2 | 3.2 | 0.00 | 0.43 | 0.43 | 90 | 1018.4 |
| 20260507080553 | 21 | 56 | 3.2 | 3.2 | 0.00 | 0.43 | 0.43 | 90 | 1018.2 |
| 20260507080050 | 21 | 39 | 1.6 | 3.2 | 0.00 | 0.43 | 0.43 | 90 | 1018.2 |
| 20260507075545 | 21 | 29 | 3.2 | 3.2 | 0.00 | 0.43 | 0.43 | 89 | 1018.2 |
| 20260507075042 | 21 | 38 | 3.2 | 3.2 | 0.00 | 0.43 | 0.43 | 89 | 1018.3 |
| 20260507074538 | 21 | 102 | 1.6 | 3.2 | 0.00 | 0.43 | 0.43 | 89 | 1018.3 |
| 20260507074037 | 21 | 36 | 1.6 | 3.2 | 0.00 | 0.43 | 0.43 | 89 | 1018.3 |
| 20260507073533 | 21 | 35 | 3.2 | 3.2 | 0.00 | 0.43 | 0.43 | 88 | 1018.2 |
| 20260507073029 | 21 | 16 | 3.2 | 3.2 | 0.00 | 0.43 | 0.43 | 88 | 1018.2 |
| 20260507072527 | 22 | 3 | 3.2 | 3.2 | 0.00 | 0.43 | 0.43 | 87 | 1018.4 |
| 20260507072024 | 22 | 24 | 3.2 | 3.2 | 0.00 | 0.43 | 0.43 | 86 | 1018.2 |
| 20260507071521 | 22 | 42 | 1.6 | 3.2 | 0.00 | 0.43 | 0.43 | 85 | 1018.1 |
| 20260507071018 | 22 | 68 | 1.6 | 3.2 | 0.00 | 0.43 | 0.43 | 83 | 1018.0 |
| 20260507070515 | 22 | 94 | 3.2 | 3.2 | 0.00 | 0.43 | 0.43 | 82 | 1018.0 |
| 20260507070013 | 22 | 51 | 0.0 | 3.2 | 0.00 | 0.43 | 0.43 | 81 | 1017.9 |
| 20260507065508 | 22 | 77 | 0.0 | 3.2 | 0.00 | 0.43 | 0.43 | 81 | 1017.9 |
| 20260507065006 | 22 | 83 | 1.6 | 3.2 | 0.00 | 0.43 | 0.43 | 81 | 1018.0 |
| 20260507064504 | 22 | 80 | 1.6 | 3.2 | 0.00 | 0.43 | 0.43 | 83 | 1017.7 |
| 20260507064001 | 23 | 78 | 1.6 | 3.2 | 0.00 | 0.43 | 0.43 | 85 | 1017.8 |
| 20260507063458 | 23 | 115 | 1.6 | 3.2 | 0.00 | 0.43 | 0.43 | 85 | 1017.7 |
| 20260507062955 | 23 | 89 | 0.0 | 1.6 | 0.00 | 0.43 | 0.43 | 87 | 1017.7 |
| 20260507062452 | 23 | 104 | 0.0 | 1.6 | 0.00 | 0.43 | 0.43 | 87 | 1017.6 |
| 20260507061950 | 23 | 19 | 1.6 | 1.6 | 0.00 | 0.43 | 0.43 | 87 | 1017.4 |
| 20260507061447 | 23 | 350 | 0.0 | 3.2 | 0.00 | 0.43 | 0.43 | 87 | 1017.2 |
| 20260507060946 | 23 | 354 | 1.6 | 1.6 | 0.00 | 0.43 | 0.43 | 87 | 1017.4 |
| 20260507060442 | 23 | 299 | 0.0 | 3.2 | 0.00 | 0.43 | 0.43 | 88 | 1017.2 |
| 20260507055939 | 23 | 322 | 0.0 | 1.6 | 0.00 | 0.43 | 0.43 | 87 | 1017.1 |
| 20260507055434 | 23 | 218 | 1.6 | 1.6 | 0.00 | 0.43 | 0.43 | 87 | 1017.1 |
| 20260507054931 | 23 | 18 | 0.0 | 1.6 | 0.00 | 0.43 | 0.43 | 88 | 1017.1 |
| 20260507054427 | 23 | 209 | 0.0 | 1.6 | 0.00 | 0.43 | 0.43 | 87 | 1017.1 |
| 20260507053925 | 23 | 33 | 1.6 | 3.2 | 0.00 | 0.43 | 0.43 | 86 | 1016.9 |
| 20260507053422 | 23 | 114 | 1.6 | 3.2 | 0.00 | 0.43 | 0.43 | 87 | 1016.9 |
| 20260507052921 | 23 | 200 | 3.2 | 3.2 | 0.00 | 0.43 | 0.43 | 87 | 1016.9 |
| 20260507052418 | 23 | 213 | 1.6 | 3.2 | 0.00 | 0.43 | 0.43 | 87 | 1017.0 |
| 20260507051914 | 23 | 171 | 1.6 | 4.8 | 0.00 | 0.43 | 0.43 | 86 | 1017.0 |
| 20260507051412 | 23 | 131 | 0.0 | 1.6 | 0.00 | 0.43 | 0.43 | 87 | 1016.9 |
| 20260507050909 | 23 | 277 | 3.2 | 6.4 | 0.00 | 0.43 | 0.43 | 86 | 1016.8 |
| 20260507050405 | 23 | 151 | 1.6 | 3.2 | 0.00 | 0.43 | 0.43 | 87 | 1016.7 |
| 20260507045902 | 23 | 127 | 3.2 | 4.8 | 0.00 | 0.43 | 0.43 | 87 | 1016.6 |
| 20260507045359 | 24 | 263 | 0.0 | 4.8 | 0.00 | 0.43 | 0.43 | 86 | 1016.8 |
| 20260507044856 | 24 | 7 | 1.6 | 4.8 | 0.00 | 0.43 | 0.43 | 86 | 1016.6 |
| 20260507044352 | 24 | 247 | 0.0 | 3.2 | 0.00 | 0.43 | 0.43 | 84 | 1016.4 |
| 20260507043848 | 25 | 97 | 3.2 | 4.8 | 0.00 | 0.43 | 0.43 | 84 | 1016.4 |
| 20260507043345 | 25 | 308 | 1.6 | 6.4 | 0.00 | 0.43 | 0.43 | 83 | 1016.3 |
| 20260507042842 | 25 | 25 | 3.2 | 6.4 | 0.00 | 0.43 | 0.43 | 82 | 1016.2 |
| 20260507042337 | 25 | 305 | 3.2 | 3.2 | 0.00 | 0.43 | 0.43 | 81 | 1016.3 |
| 20260507041834 | 26 | 243 | 3.2 | 4.8 | 0.00 | 0.43 | 0.43 | 79 | 1015.9 |
| 20260507041331 | 26 | 358 | 3.2 | 3.2 | 0.00 | 0.43 | 0.43 | 78 | 1016.1 |
| 20260507040828 | 26 | 255 | 1.6 | 4.8 | 0.00 | 0.43 | 0.43 | 79 | 1015.9 |
| 20260507040324 | 26 | 207 | 3.2 | 4.8 | 0.00 | 0.43 | 0.43 | 76 | 1015.8 |
| 20260507035820 | 26 | 301 | 3.2 | 6.4 | 0.00 | 0.43 | 0.43 | 76 | 1015.7 |
| 20260507035316 | 27 | 284 | 0.0 | 3.2 | 0.00 | 0.43 | 0.43 | 74 | 1015.6 |
| 20260507034814 | 26 | 246 | 0.0 | 6.4 | 0.00 | 0.43 | 0.43 | 76 | 1015.7 |
| 20260507034310 | 26 | 248 | 1.6 | 3.2 | 0.00 | 0.43 | 0.43 | 77 | 1015.5 |
| 20260507033809 | 26 | 272 | 3.2 | 6.4 | 0.00 | 0.43 | 0.43 | 77 | 1015.6 |
| 20260507033306 | 25 | 218 | 3.2 | 4.8 | 0.00 | 0.43 | 0.43 | 76 | 1015.5 |
| 20260507032803 | 26 | 143 | 0.0 | 6.4 | 0.00 | 0.43 | 0.43 | 77 | 1015.4 |
| 20260507032259 | 26 | 210 | 4.8 | 4.8 | 0.00 | 0.43 | 0.43 | 76 | 1015.6 |
| 20260507031755 | 26 | 218 | 1.6 | 6.4 | 0.00 | 0.43 | 0.43 | 75 | 1015.5 |
| 20260507031252 | 27 | 0 | 0.0 | 3.2 | 0.00 | 0.43 | 0.43 | 74 | 1015.6 |
| 20260507030749 | 27 | 228 | 0.0 | 4.8 | 0.00 | 0.43 | 0.43 | 72 | 1015.4 |
| 20260507030247 | 26 | 309 | 3.2 | 6.4 | 0.00 | 0.43 | 0.43 | 72 | 1015.3 |
| 20260507025744 | 27 | 358 | 1.6 | 4.8 | 0.00 | 0.43 | 0.43 | 74 | 1015.5 |
| 20260507025240 | 27 | 204 | 6.4 | 6.4 | 0.00 | 0.43 | 0.43 | 72 | 1015.3 |
| 20260507024739 | 26 | 220 | 0.0 | 4.8 | 0.00 | 0.43 | 0.43 | 72 | 1015.2 |
| 20260507024236 | 26 | 305 | 0.0 | 4.8 | 0.00 | 0.43 | 0.43 | 73 | 1015.4 |
| 20260507023731 | 26 | 155 | 1.6 | 6.4 | 0.00 | 0.43 | 0.43 | 70 | 1015.5 |
| 20260507023229 | 26 | 217 | 1.6 | 3.2 | 0.00 | 0.43 | 0.43 | 69 | 1015.5 |
| 20260507022726 | 26 | 213 | 3.2 | 6.4 | 0.00 | 0.43 | 0.43 | 74 | 1015.3 |
| 20260507022221 | 26 | 211 | 4.8 | 4.8 | 0.00 | 0.43 | 0.43 | 72 | 1015.3 |
| 20260507021718 | 26 | 324 | 1.6 | 3.2 | 0.00 | 0.43 | 0.43 | 74 | 1015.2 |
| 20260507021213 | 26 | 177 | 1.6 | 4.8 | 0.00 | 0.43 | 0.43 | 73 | 1015.4 |
| 20260507020712 | 26 | 214 | 1.6 | 4.8 | 0.00 | 0.43 | 0.43 | 71 | 1015.1 |
| 20260507020208 | 27 | 209 | 6.4 | 6.4 | 0.00 | 0.43 | 0.43 | 71 | 1015.4 |
| 20260507015706 | 27 | 346 | 0.0 | 6.4 | 0.00 | 0.43 | 0.43 | 68 | 1015.2 |
| 20260507015203 | 27 | 139 | 1.6 | 8.0 | 0.00 | 0.43 | 0.43 | 68 | 1015.3 |
| 20260507014659 | 28 | 231 | 1.6 | 6.4 | 0.00 | 0.43 | 0.43 | 70 | 1015.4 |
| 20260507014155 | 27 | 296 | 1.6 | 6.4 | 0.00 | 0.43 | 0.43 | 72 | 1015.3 |
| 20260507013653 | 27 | 208 | 4.8 | 6.4 | 0.00 | 0.43 | 0.43 | 69 | 1015.4 |
| 20260507013150 | 27 | 225 | 3.2 | 6.4 | 0.00 | 0.43 | 0.43 | 72 | 1015.4 |
| 20260507012648 | 27 | 286 | 3.2 | 8.0 | 0.00 | 0.43 | 0.43 | 71 | 1015.5 |
| 20260507012142 | 27 | 276 | 1.6 | 6.4 | 0.00 | 0.43 | 0.43 | 72 | 1015.4 |
| 20260507011641 | 27 | 349 | 1.6 | 3.2 | 0.00 | 0.43 | 0.43 | 71 | 1015.6 |
| 20260507011137 | 27 | 278 | 3.2 | 3.2 | 0.00 | 0.43 | 0.43 | 70 | 1015.4 |
| 20260507010631 | 27 | 217 | 0.0 | 6.4 | 0.00 | 0.43 | 0.43 | 74 | 1015.5 |
| 20260507010127 | 26 | 79 | 1.6 | 3.2 | 0.00 | 0.43 | 0.43 | 72 | 1015.5 |
| 20260507005625 | 26 | 260 | 1.6 | 4.8 | 0.00 | 0.43 | 0.43 | 75 | 1015.6 |
| 20260507005121 | 26 | 189 | 0.0 | 4.8 | 0.00 | 0.43 | 0.43 | 76 | 1015.7 |
| 20260507004618 | 26 | 128 | 1.6 | 4.8 | 0.00 | 0.43 | 0.43 | 73 | 1015.9 |
| 20260507004116 | 26 | 345 | 0.0 | 4.8 | 0.00 | 0.43 | 0.43 | 73 | 1015.6 |
| 20260507003612 | 26 | 228 | 3.2 | 4.8 | 0.00 | 0.43 | 0.43 | 73 | 1015.9 |
| 20260507003107 | 26 | 308 | 4.8 | 4.8 | 0.00 | 0.43 | 0.43 | 76 | 1015.9 |
| 20260507002604 | 26 | 276 | 4.8 | 6.4 | 0.00 | 0.43 | 0.43 | 78 | 1016.0 |
| 20260507002059 | 26 | 203 | 0.0 | 4.8 | 0.00 | 0.43 | 0.43 | 78 | 1016.1 |
| 20260507001556 | 26 | 341 | 0.0 | 4.8 | 0.00 | 0.43 | 0.43 | 77 | 1015.8 |
| 20260507001054 | 26 | 234 | 0.0 | 4.8 | 0.00 | 0.43 | 0.43 | 78 | 1015.8 |
| 20260507000550 | 26 | 162 | 0.0 | 6.4 | 0.00 | 0.43 | 0.43 | 75 | 1015.9 |
| 20260507000045 | 26 | 107 | 0.0 | 3.2 | 0.00 | 0.43 | 0.43 | 77 | 1016.0 |
| 20260506235543 | 26 | 216 | 3.2 | 3.2 | 0.00 | 0.43 | 0.43 | 78 | 1016.2 |
| 20260506235038 | 26 | 202 | 3.2 | 6.4 | 0.00 | 0.43 | 0.43 | 76 | 1016.0 |
| 20260506234536 | 27 | 237 | 3.2 | 4.8 | 0.00 | 0.43 | 0.43 | 76 | 1016.2 |
| 20260506234033 | 27 | 211 | 0.0 | 9.7 | 0.00 | 0.43 | 0.43 | 75 | 1016.2 |
| 20260506233530 | 27 | 215 | 8.0 | 8.0 | 0.00 | 0.43 | 0.43 | 74 | 1016.3 |
| 20260506233027 | 28 | 271 | 3.2 | 4.8 | 0.00 | 0.43 | 0.43 | 74 | 1016.3 |
| 20260506232523 | 27 | 268 | 3.2 | 4.8 | 0.00 | 0.43 | 0.43 | 76 | 1016.3 |
| 20260506232018 | 26 | 88 | 1.6 | 4.8 | 0.00 | 0.43 | 0.43 | 75 | 1016.4 |
| 20260506231516 | 26 | 215 | 1.6 | 6.4 | 0.00 | 0.43 | 0.43 | 74 | 1016.4 |
| 20260506231014 | 26 | 281 | 3.2 | 6.4 | 0.00 | 0.43 | 0.43 | 77 | 1016.7 |
| 20260506230510 | 26 | 349 | 1.6 | 6.4 | 0.00 | 0.43 | 0.43 | 77 | 1016.7 |
| 20260506230008 | 26 | 233 | 3.2 | 4.8 | 0.00 | 0.43 | 0.43 | 80 | 1016.7 |
| 20260506225504 | 25 | 281 | 1.6 | 6.4 | 0.00 | 0.43 | 0.43 | 80 | 1016.9 |
| 20260506225000 | 26 | 255 | 3.2 | 6.4 | 0.00 | 0.43 | 0.43 | 81 | 1017.0 |
| 20260506224457 | 26 | 128 | 0.0 | 6.4 | 0.00 | 0.43 | 0.43 | 78 | 1016.9 |
| 20260506223954 | 26 | 126 | 1.6 | 4.8 | 0.00 | 0.43 | 0.43 | 80 | 1016.9 |
| 20260506223450 | 26 | 251 | 0.0 | 3.2 | 0.00 | 0.43 | 0.43 | 80 | 1016.9 |
| 20260506222947 | 26 | 195 | 1.6 | 3.2 | 0.00 | 0.43 | 0.43 | 79 | 1016.7 |
| 20260506222444 | 26 | 318 | 3.2 | 6.4 | 0.00 | 0.43 | 0.43 | 79 | 1016.8 |
| 20260506221940 | 26 | 251 | 1.6 | 4.8 | 0.00 | 0.43 | 0.43 | 78 | 1017.0 |
| 20260506221437 | 26 | 256 | 1.6 | 6.4 | 0.00 | 0.43 | 0.43 | 80 | 1016.9 |
| 20260506220936 | 26 | 306 | 3.2 | 6.4 | 0.00 | 0.43 | 0.43 | 77 | 1016.8 |
| 20260506220431 | 27 | 261 | 0.0 | 6.4 | 0.00 | 0.43 | 0.43 | 74 | 1016.8 |
| 20260506215927 | 26 | 244 | 1.6 | 4.8 | 0.00 | 0.43 | 0.43 | 75 | 1017.0 |
| 20260506215424 | 26 | 276 | 3.2 | 6.4 | 0.00 | 0.43 | 0.43 | 74 | 1016.9 |
| 20260506214919 | 26 | 311 | 4.8 | 6.4 | 0.00 | 0.43 | 0.43 | 76 | 1016.8 |
| 20260506214417 | 26 | 231 | 3.2 | 4.8 | 0.00 | 0.43 | 0.43 | 73 | 1016.6 |
| 20260506213914 | 27 | 229 | 4.8 | 6.4 | 0.00 | 0.43 | 0.43 | 71 | 1016.7 |
| 20260506213412 | 27 | 256 | 3.2 | 3.2 | 0.00 | 0.43 | 0.43 | 75 | 1017.2 |
| 20260506212909 | 27 | 276 | 3.2 | 6.4 | 0.00 | 0.43 | 0.43 | 76 | 1017.1 |
| 20260506212405 | 26 | 288 | 1.6 | 6.4 | 0.00 | 0.43 | 0.43 | 76 | 1017.4 |
| 20260506211859 | 26 | 237 | 1.6 | 6.4 | 0.00 | 0.43 | 0.43 | 76 | 1017.1 |
| 20260506211356 | 26 | 328 | 1.6 | 6.4 | 0.00 | 0.43 | 0.43 | 77 | 1017.5 |
| 20260506210853 | 26 | 297 | 3.2 | 6.4 | 0.00 | 0.43 | 0.43 | 77 | 1017.7 |
| 20260506210350 | 26 | 261 | 3.2 | 4.8 | 0.00 | 0.43 | 0.43 | 78 | 1017.8 |
| 20260506205848 | 26 | 232 | 1.6 | 6.4 | 0.00 | 0.43 | 0.43 | 77 | 1017.5 |
| 20260506205343 | 26 | 213 | 1.6 | 3.2 | 0.00 | 0.43 | 0.43 | 77 | 1017.4 |
| 20260506204840 | 26 | 245 | 0.0 | 8.0 | 0.00 | 0.43 | 0.43 | 77 | 1017.4 |
| 20260506204337 | 25 | 106 | 1.6 | 3.2 | 0.00 | 0.43 | 0.43 | 80 | 1017.1 |
| 20260506203835 | 26 | 259 | 3.2 | 6.4 | 0.00 | 0.43 | 0.43 | 80 | 1017.5 |
| 20260506203332 | 26 | 122 | 0.0 | 4.8 | 0.00 | 0.43 | 0.43 | 80 | 1017.5 |
| 20260506202829 | 25 | 194 | 4.8 | 6.4 | 0.00 | 0.43 | 0.43 | 80 | 1017.5 |
| 20260506202326 | 26 | 319 | 0.0 | 4.8 | 0.00 | 0.43 | 0.43 | 81 | 1017.4 |
| 20260506201822 | 25 | 293 | 3.2 | 4.8 | 0.00 | 0.43 | 0.43 | 80 | 1017.4 |
| 20260506201320 | 25 | 220 | 4.8 | 8.0 | 0.00 | 0.43 | 0.43 | 79 | 1017.5 |
| 20260506200816 | 26 | 215 | 0.0 | 8.0 | 0.00 | 0.43 | 0.43 | 77 | 1017.5 |
| 20260506200312 | 26 | 280 | 1.6 | 6.4 | 0.00 | 0.43 | 0.43 | 80 | 1017.6 |
| 20260506195809 | 26 | 246 | 3.2 | 6.4 | 0.00 | 0.43 | 0.43 | 83 | 1017.4 |
| 20260506195306 | 25 | 225 | 1.6 | 8.0 | 0.00 | 0.43 | 0.43 | 79 | 1017.4 |
| 20260506194803 | 25 | 161 | 3.2 | 4.8 | 0.00 | 0.43 | 0.43 | 82 | 1017.1 |
| 20260506194259 | 25 | 191 | 3.2 | 6.4 | 0.00 | 0.43 | 0.43 | 80 | 1017.2 |
| 20260506193757 | 26 | 166 | 0.0 | 3.2 | 0.00 | 0.43 | 0.43 | 79 | 1017.1 |
| 20260506193254 | 25 | 280 | 1.6 | 3.2 | 0.00 | 0.43 | 0.43 | 81 | 1017.4 |
| 20260506192750 | 25 | 216 | 3.2 | 4.8 | 0.00 | 0.43 | 0.43 | 79 | 1017.2 |
| 20260506192247 | 26 | 208 | 1.6 | 3.2 | 0.00 | 0.43 | 0.43 | 80 | 1017.1 |
| 20260506191743 | 25 | 311 | 0.0 | 1.6 | 0.00 | 0.43 | 0.43 | 79 | 1016.9 |
| 20260506191240 | 25 | 306 | 0.0 | 0.0 | 0.00 | 0.43 | 0.43 | 81 | 1017.1 |
| 20260506190737 | 25 | 103 | 0.0 | 4.8 | 0.00 | 0.43 | 0.43 | 77 | 1017.5 |
| 20260506190234 | 25 | 315 | 3.2 | 3.2 | 0.00 | 0.43 | 0.43 | 79 | 1017.2 |
| 20260506185731 | 25 | 226 | 0.0 | 3.2 | 0.00 | 0.43 | 0.43 | 80 | 1017.4 |
| 20260506185227 | 25 | 309 | 3.2 | 3.2 | 0.00 | 0.43 | 0.43 | 79 | 1017.4 |
| 20260506184725 | 25 | 265 | 0.0 | 3.2 | 0.00 | 0.43 | 0.43 | 79 | 1017.4 |
| 20260506184222 | 25 | 1 | 0.0 | 3.2 | 0.00 | 0.43 | 0.43 | 81 | 1017.4 |
| 20260506183719 | 25 | 202 | 0.0 | 1.6 | 0.00 | 0.43 | 0.43 | 79 | 1017.2 |
| 20260506183215 | 24 | 43 | 0.0 | 3.2 | 0.00 | 0.43 | 0.43 | 80 | 1016.9 |
| 20260506182712 | 23 | 13 | 1.6 | 3.2 | 0.00 | 0.43 | 0.43 | 82 | 1017.2 |
| 20260506182209 | 23 | 71 | 0.0 | 1.6 | 0.00 | 0.43 | 0.43 | 86 | 1017.4 |
| 20260506181707 | 23 | 31 | 0.0 | 3.2 | 0.00 | 0.43 | 0.43 | 91 | 1017.5 |
| 20260506181204 | 22 | 301 | 0.0 | 1.6 | 0.00 | 0.43 | 0.43 | 96 | 1017.6 |
| 20260506180701 | 21 | 98 | 3.2 | 3.2 | 0.00 | 0.43 | 0.43 | 99 | 1017.5 |
| 20260506180157 | 20 | 56 | 1.6 | 3.2 | 0.00 | 0.43 | 0.43 | 99 | 1017.5 |
| 20260506175653 | 20 | 98 | 1.6 | 3.2 | 0.00 | 0.43 | 0.43 | 99 | 1017.5 |
| 20260506175150 | 20 | 65 | 3.2 | 3.2 | 0.00 | 0.43 | 0.43 | 99 | 1017.5 |
| 20260506174643 | 20 | 68 | 1.6 | 3.2 | 0.00 | 0.43 | 0.43 | 99 | 1017.6 |
| 20260506174139 | 20 | 66 | 3.2 | 3.2 | 0.00 | 0.43 | 0.43 | 99 | 1017.4 |
| 20260506173637 | 19 | 89 | 0.0 | 3.2 | 0.00 | 0.43 | 0.43 | 99 | 1017.1 |
| 20260506173133 | 19 | 130 | 3.2 | 3.2 | 0.00 | 0.43 | 0.43 | 99 | 1016.9 |
| 20260506172630 | 19 | 68 | 0.0 | 3.2 | 0.00 | 0.43 | 0.43 | 99 | 1016.8 |
| 20260506172127 | 18 | 57 | 0.0 | 3.2 | 0.00 | 0.43 | 0.43 | 99 | 1016.8 |
| 20260506171624 | 18 | 75 | 3.2 | 3.2 | 0.00 | 0.43 | 0.43 | 99 | 1016.9 |
| 20260506171122 | 18 | 71 | 3.2 | 4.8 | 0.00 | 0.43 | 0.43 | 99 | 1016.5 |
| 20260506170619 | 18 | 67 | 0.0 | 3.2 | 0.00 | 0.43 | 0.43 | 99 | 1016.6 |
| 20260506170116 | 18 | 80 | 3.2 | 3.2 | 0.00 | 0.43 | 0.43 | 99 | 1016.3 |
| 20260506165615 | 18 | 59 | 1.6 | 3.2 | 0.00 | 0.43 | 0.43 | 99 | 1016.4 |
| 20260506165110 | 18 | 69 | 1.6 | 3.2 | 0.00 | 0.43 | 0.43 | 99 | 1016.2 |
| 20260506164608 | 18 | 97 | 1.6 | 3.2 | 0.00 | 0.43 | 0.43 | 99 | 1016.3 |
| 20260506164105 | 18 | 86 | 3.2 | 3.2 | 0.00 | 0.43 | 0.43 | 99 | 1016.2 |
| 20260506163601 | 19 | 45 | 0.0 | 3.2 | 0.00 | 0.43 | 0.43 | 99 | 1016.0 |
| 20260506163057 | 19 | 91 | 1.6 | 3.2 | 0.00 | 0.43 | 0.43 | 99 | 1015.9 |
| 20260506162553 | 18 | 72 | 0.0 | 1.6 | 0.00 | 0.43 | 0.43 | 99 | 1016.1 |
| 20260506162051 | 18 | 98 | 0.0 | 3.2 | 0.00 | 0.43 | 0.43 | 99 | 1016.1 |
| 20260506161548 | 18 | 89 | 0.0 | 3.2 | 0.00 | 0.43 | 0.43 | 99 | 1015.8 |
| 20260506161045 | 19 | 78 | 0.0 | 3.2 | 0.00 | 0.43 | 0.43 | 99 | 1015.8 |
| 20260506160543 | 19 | 85 | 3.2 | 3.2 | 0.00 | 0.43 | 0.43 | 99 | 1016.1 |
| 20260506160039 | 19 | 59 | 3.2 | 3.2 | 0.00 | 0.43 | 0.43 | 99 | 1015.8 |
| 20260506155538 | 19 | 70 | 1.6 | 3.2 | 0.00 | 0.43 | 0.43 | 99 | 1015.8 |
| 20260506153709 | 19 | 78 | 1.6 | 3.2 | 0.00 | 0.43 | 0.43 | 99 | 1015.6 |
| 20260506153206 | 19 | 84 | 1.6 | 3.2 | 0.00 | 0.43 | 0.43 | 99 | 1015.5 |
| 20260506152703 | 19 | 64 | 0.0 | 3.2 | 0.00 | 0.43 | 0.43 | 99 | 1015.6 |
| 20260506152200 | 19 | 65 | 1.6 | 3.2 | 0.00 | 0.43 | 0.43 | 99 | 1015.5 |
| 20260506151700 | 19 | 43 | 1.6 | 3.2 | 0.00 | 0.43 | 0.43 | 99 | 1015.7 |
| 20260506151155 | 19 | 71 | 1.6 | 3.2 | 0.00 | 0.43 | 0.43 | 99 | 1015.6 |
| 20260506150652 | 20 | 64 | 0.0 | 3.2 | 0.00 | 0.43 | 0.43 | 99 | 1015.4 |
| 20260506150149 | 20 | 68 | 0.0 | 3.2 | 0.00 | 0.43 | 0.43 | 99 | 1015.4 |
| 20260506145646 | 20 | 66 | 0.0 | 3.2 | 0.00 | 0.43 | 0.43 | 99 | 1015.3 |
| 20260506145143 | 20 | 72 | 3.2 | 3.2 | 0.00 | 0.43 | 0.43 | 99 | 1015.7 |
| 20260506144641 | 20 | 54 | 0.0 | 3.2 | 0.00 | 0.43 | 0.43 | 99 | 1015.7 |
| 20260506144137 | 20 | 333 | 0.0 | 3.2 | 0.05 | 0.43 | 0.43 | 99 | 1015.8 |
| 20260506143635 | 20 | 83 | 0.0 | 3.2 | 0.05 | 0.43 | 0.43 | 99 | 1015.8 |
| 20260506143132 | 20 | 18 | 0.0 | 3.2 | 0.00 | 0.41 | 0.41 | 99 | 1015.6 |
| 20260506142631 | 20 | 37 | 0.0 | 3.2 | 0.00 | 0.41 | 0.41 | 99 | 1015.6 |
| 20260506142129 | 20 | 142 | 0.0 | 3.2 | 0.00 | 0.41 | 0.41 | 99 | 1015.8 |
| 20260506141626 | 20 | 27 | 1.6 | 3.2 | 0.00 | 0.41 | 0.41 | 99 | 1015.9 |
| 20260506141124 | 20 | 87 | 1.6 | 3.2 | 0.00 | 0.41 | 0.41 | 99 | 1015.8 |
| 20260506140621 | 20 | 2 | 0.0 | 3.2 | 0.00 | 0.41 | 0.41 | 99 | 1015.7 |
| 20260506140118 | 20 | 61 | 0.0 | 3.2 | 0.00 | 0.41 | 0.41 | 99 | 1015.7 |
| 20260506135615 | 20 | 93 | 0.0 | 3.2 | 0.00 | 0.41 | 0.41 | 99 | 1015.7 |
| 20260506135111 | 20 | 79 | 0.0 | 3.2 | 0.00 | 0.41 | 0.41 | 99 | 1015.8 |
| 20260506134608 | 20 | 121 | 1.6 | 3.2 | 0.00 | 0.41 | 0.41 | 99 | 1015.6 |
| 20260506134104 | 20 | 103 | 0.0 | 3.2 | 0.00 | 0.41 | 0.41 | 99 | 1015.7 |
| 20260506133601 | 20 | 103 | 0.0 | 3.2 | 0.00 | 0.41 | 0.41 | 99 | 1015.6 |
| 20260506133058 | 20 | 68 | 0.0 | 3.2 | 0.00 | 0.41 | 0.41 | 99 | 1015.6 |
| 20260506132555 | 20 | 87 | 1.6 | 3.2 | 0.00 | 0.41 | 0.41 | 99 | 1015.7 |
| 20260506132053 | 20 | 43 | 1.6 | 3.2 | 0.05 | 0.41 | 0.41 | 99 | 1015.7 |
| 20260506131550 | 20 | 52 | 1.6 | 3.2 | 0.05 | 0.41 | 0.41 | 99 | 1015.7 |
| 20260506131046 | 20 | 92 | 0.0 | 3.2 | 0.36 | 0.41 | 0.41 | 99 | 1015.7 |
| 20260506130543 | 20 | 88 | 0.0 | 3.2 | 0.36 | 0.38 | 0.38 | 99 | 1015.7 |
| 20260506130041 | 20 | 23 | 0.0 | 3.2 | 0.13 | 0.33 | 0.33 | 99 | 1015.7 |